• In Deutschland
  • Länderverzeichnis
  • Für 7 Tage
  • Wassertemperatur
  • Satellitenkarten
  • Wetterkarte
  • Widgets
  • user-avatar
    Anmelden

    Stündliche Wetter Larne

    Heute, 22 November, Mittwoch

    Zeit Temperatur Niederschläge Wind Luftdruck Luftfeuchtigkeit
    00:00 +10°C° 0 mm 7 m/S 741 mmHg 92%
    01:00 +9°C° 0,1 mm 6 m/S 741 mmHg 92%
    02:00 +9°C° 0,1 mm 5 m/S 741 mmHg 92%
    03:00 +8°C° 0,1 mm 4 m/S 740 mmHg 93%
    04:00 +8°C° 0,8 mm 4 m/S 739 mmHg 93%
    05:00 +9°C° 0,8 mm 3 m/S 739 mmHg 94%
    06:00 +6°C° 0 mm 4 m/S 738 mmHg 92%
    07:00 +7°C° 1,9 mm 3 m/S 737 mmHg 92%
    08:00 +7°C° 1,9 mm 3 m/S 737 mmHg 93%
    09:00 +7°C° 1,9 mm 3 m/S 736 mmHg 94%
    10:00 +7°C° 1,2 mm 3 m/S 735 mmHg 94%
    11:00 +7°C° 1,2 mm 3 m/S 735 mmHg 93%
    12:00 +7°C° 1,2 mm 3 m/S 734 mmHg 93%
    13:00 +7°C° 0,3 mm 3 m/S 734 mmHg 92%
    14:00 +7°C° 0,3 mm 3 m/S 733 mmHg 91%
    15:00 +5°C° 0,3 mm 3 m/S 733 mmHg 90%
    16:00 +5°C° 0,1 mm 3 m/S 733 mmHg 90%
    17:00 +5°C° 0,1 mm 3 m/S 733 mmHg 90%
    18:00 +6°C° 0,1 mm 2 m/S 732 mmHg 90%
    19:00 +6°C° 0,1 mm 2 m/S 732 mmHg 90%
    20:00 +5°C° 0,1 mm 2 m/S 732 mmHg 90%
    21:00 +6°C° 0,1 mm 1 m/S 732 mmHg 90%
    22:00 +5°C° 0,3 mm 2 m/S 731 mmHg 90%
    23:00 +5°C° 0,3 mm 2 m/S 731 mmHg 90%

    Morgen, 23 November, Donnerstag

    Zeit Temperatur Niederschläge Wind Luftdruck Luftfeuchtigkeit
    00:00 +5°C° 0,3 mm 2 m/S 730 mmHg 90%
    01:00 +4°C° 0,6 mm 4 m/S 730 mmHg 88%
    02:00 +3°C° 0,6 mm 5 m/S 730 mmHg 87%
    03:00 +2°C° 0,6 mm 6 m/S 729 mmHg 86%
    04:00 +2°C° 0,1 mm 6 m/S 729 mmHg 86%
    05:00 +2°C° 0,1 mm 7 m/S 729 mmHg 86%
    06:00 +2°C° 0,1 mm 7 m/S 729 mmHg 86%
    07:00 +2°C° 0,1 mm 7 m/S 730 mmHg 87%
    08:00 +2°C° 0,1 mm 8 m/S 731 mmHg 87%
    09:00 +2°C° 0,1 mm 8 m/S 732 mmHg 88%
    10:00 +4°C° 0,1 mm 8 m/S 733 mmHg 84%
    11:00 +3°C° 0,1 mm 9 m/S 735 mmHg 80%
    12:00 +5°C° 0,1 mm 10 m/S 737 mmHg 76%
    13:00 +3°C° 0,3 mm 9 m/S 738 mmHg 77%
    14:00 +4°C° 0,3 mm 8 m/S 740 mmHg 77%
    15:00 +3°C° 0,3 mm 7 m/S 741 mmHg 78%
    16:00 +3°C° 0,2 mm 7 m/S 742 mmHg 79%
    17:00 +3°C° 0,2 mm 6 m/S 744 mmHg 80%
    18:00 +2°C° 0,2 mm 6 m/S 745 mmHg 81%
    19:00 +2°C° 0,1 mm 6 m/S 745 mmHg 81%
    20:00 +2°C° 0,1 mm 6 m/S 746 mmHg 82%
    21:00 +1°C° 0,1 mm 5 m/S 747 mmHg 82%
    22:00 +1°C° 0 mm 5 m/S 747 mmHg 82%
    23:00 +1°C° 0 mm 5 m/S 748 mmHg 82%

    übermorgen, 24 November, Freitag

    Zeit Temperatur Niederschläge Wind Luftdruck Luftfeuchtigkeit
    00:00 +1°C° 0 mm 5 m/S 748 mmHg 82%
    01:00 0°C° 0,1 mm 5 m/S 749 mmHg 82%
    02:00 0°C° 0,1 mm 5 m/S 749 mmHg 82%
    03:00 0°C° 0,1 mm 5 m/S 749 mmHg 83%
    04:00 0°C° 0,1 mm 5 m/S 750 mmHg 83%
    05:00 0°C° 0,1 mm 5 m/S 750 mmHg 84%
    06:00 0°C° 0,1 mm 5 m/S 750 mmHg 84%
    07:00 0°C° 0,1 mm 5 m/S 751 mmHg 84%
    08:00 0°C° 0,1 mm 5 m/S 751 mmHg 84%
    09:00 0°C° 0,1 mm 5 m/S 751 mmHg 84%
    10:00 +1°C° 0,1 mm 5 m/S 751 mmHg 80%
    11:00 +2°C° 0,1 mm 6 m/S 751 mmHg 76%
    12:00 +2°C° 0,1 mm 7 m/S 752 mmHg 73%
    13:00 +2°C° 0 mm 7 m/S 752 mmHg 71%
    14:00 +2°C° 0 mm 7 m/S 752 mmHg 70%
    15:00 +2°C° 0 mm 7 m/S 752 mmHg 69%
    16:00 0°C° 0,1 mm 7 m/S 752 mmHg 70%
    17:00 0°C° 0,1 mm 7 m/S 752 mmHg 72%
    18:00 -1°C° 0,1 mm 7 m/S 752 mmHg 73%
    19:00 -1°C° 0,1 mm 7 m/S 752 mmHg 74%
    20:00 -1°C° 0,1 mm 7 m/S 752 mmHg 74%
    21:00 -1°C° 0,1 mm 7 m/S 753 mmHg 75%
    22:00 -1°C° 0,1 mm 8 m/S 753 mmHg 74%
    23:00 0°C° 0,1 mm 8 m/S 753 mmHg 74%

    25 November, Samstag

    Zeit Temperatur Niederschläge Wind Luftdruck Luftfeuchtigkeit
    00:00 0°C° 0,1 mm 8 m/S 753 mmHg 73%
    01:00 0°C° 0,2 mm 9 m/S 753 mmHg 73%
    02:00 0°C° 0,2 mm 9 m/S 752 mmHg 73%
    03:00 0°C° 0,2 mm 9 m/S 752 mmHg 73%
    04:00 0°C° 0,4 mm 9 m/S 753 mmHg 73%
    05:00 0°C° 0,4 mm 9 m/S 753 mmHg 74%
    06:00 0°C° 0,4 mm 9 m/S 753 mmHg 74%
    07:00 0°C° 0,3 mm 9 m/S 754 mmHg 74%
    08:00 0°C° 0,3 mm 9 m/S 754 mmHg 75%
    09:00 0°C° 0,3 mm 9 m/S 754 mmHg 75%
    10:00 0°C° 0,1 mm 9 m/S 755 mmHg 74%
    11:00 +1°C° 0,1 mm 9 m/S 755 mmHg 73%
    12:00 +1°C° 0,1 mm 9 m/S 756 mmHg 72%
    13:00 +1°C° 0,1 mm 9 m/S 756 mmHg 72%
    14:00 +1°C° 0,1 mm 9 m/S 756 mmHg 72%
    15:00 +1°C° 0,1 mm 10 m/S 756 mmHg 71%
    16:00 +1°C° 0,2 mm 10 m/S 756 mmHg 73%
    17:00 +1°C° 0,2 mm 10 m/S 756 mmHg 75%
    18:00 +1°C° 0,2 mm 10 m/S 756 mmHg 77%
    19:00 +2°C° 0,2 mm 10 m/S 756 mmHg 78%
    20:00 +2°C° 0,2 mm 10 m/S 757 mmHg 78%
    21:00 +3°C° 0,2 mm 10 m/S 757 mmHg 78%
    22:00 +3°C° 0,2 mm 10 m/S 757 mmHg 79%
    23:00 +3°C° 0,2 mm 10 m/S 758 mmHg 79%

    26 November, Sonntag

    Zeit Temperatur Niederschläge Wind Luftdruck Luftfeuchtigkeit
    00:00 +3°C° 0,2 mm 10 m/S 758 mmHg 79%
    01:00 +3°C° 0,2 mm 10 m/S 759 mmHg 79%
    02:00 +3°C° 0,2 mm 10 m/S 759 mmHg 80%
    03:00 +3°C° 0,2 mm 9 m/S 760 mmHg 80%
    04:00 +2°C° 0,3 mm 9 m/S 760 mmHg 80%
    05:00 +2°C° 0,3 mm 9 m/S 760 mmHg 80%
    06:00 +2°C° 0,3 mm 9 m/S 761 mmHg 81%
    07:00 +2°C° 0,2 mm 9 m/S 761 mmHg 80%
    08:00 +2°C° 0,2 mm 9 m/S 762 mmHg 79%
    09:00 +2°C° 0,2 mm 9 m/S 762 mmHg 78%
    10:00 +3°C° 0,1 mm 9 m/S 763 mmHg 77%
    11:00 +3°C° 0,1 mm 9 m/S 763 mmHg 75%
    12:00 +3°C° 0,1 mm 9 m/S 763 mmHg 74%
    13:00 +4°C° 0 mm 8 m/S 763 mmHg 76%
    14:00 +4°C° 0 mm 8 m/S 763 mmHg 78%
    15:00 +4°C° 0 mm 7 m/S 763 mmHg 80%
    16:00 +4°C° 0,2 mm 7 m/S 762 mmHg 83%
    17:00 +4°C° 0,2 mm 8 m/S 762 mmHg 86%
    18:00 +5°C° 0,2 mm 8 m/S 762 mmHg 89%
    19:00 +5°C° 0,1 mm 8 m/S 761 mmHg 87%
    20:00 +5°C° 0,1 mm 9 m/S 760 mmHg 86%
    21:00 +5°C° 0,1 mm 10 m/S 759 mmHg 85%
    22:00 +5°C° 0,7 mm 10 m/S 758 mmHg 85%
    23:00 +6°C° 0,7 mm 11 m/S 757 mmHg 86%

    27 November, Montag

    Zeit Temperatur Niederschläge Wind Luftdruck Luftfeuchtigkeit
    00:00 +5°C° 0,7 mm 12 m/S 756 mmHg 87%
    01:00 +6°C° 1 mm 10 m/S 756 mmHg 86%
    02:00 +5°C° 1 mm 9 m/S 755 mmHg 86%
    03:00 +5°C° 1 mm 8 m/S 755 mmHg 85%
    04:00 +5°C° 0,7 mm 8 m/S 754 mmHg 86%
    05:00 +4°C° 0,7 mm 8 m/S 754 mmHg 87%
    06:00 +4°C° 0,7 mm 8 m/S 753 mmHg 88%
    07:00 +4°C° 0,6 mm 8 m/S 753 mmHg 86%
    08:00 +2°C° 0,6 mm 8 m/S 753 mmHg 84%
    09:00 +2°C° 0,6 mm 8 m/S 753 mmHg 82%
    10:00 +2°C° 0,1 mm 8 m/S 753 mmHg 79%
    11:00 +3°C° 0,1 mm 9 m/S 753 mmHg 76%
    12:00 +3°C° 0,1 mm 10 m/S 753 mmHg 73%
    13:00 +3°C° 0,2 mm 10 m/S 753 mmHg 73%
    14:00 +3°C° 0,2 mm 10 m/S 753 mmHg 74%
    15:00 +3°C° 0,2 mm 10 m/S 753 mmHg 74%
    16:00 +3°C° 0,2 mm 10 m/S 753 mmHg 75%
    17:00 +3°C° 0,2 mm 9 m/S 754 mmHg 76%
    18:00 +2°C° 0,2 mm 9 m/S 755 mmHg 77%
    19:00 +2°C° 0,1 mm 8 m/S 756 mmHg 77%
    20:00 +2°C° 0,1 mm 8 m/S 756 mmHg 76%
    21:00 +1°C° 0,1 mm 8 m/S 757 mmHg 76%
    22:00 +1°C° 0,2 mm 8 m/S 757 mmHg 77%
    23:00 +1°C° 0,2 mm 8 m/S 757 mmHg 77%
    Mehr zeigen